Home > Weather > Vientiane > Past weeks

Flag for Laos Weather for the Past 2 Weeks in Vientiane, Laos

Now
81 °F

Fog.


Feels Like: 85 °F
Forecast: 78 / 98 °F
Wind: 5 mph from Northwest

Location: Vientiane Airport

Current Time: May 3, 2016 at 11:44:50 PM

Latest Report: May 3, 2016 at 10:00 PM


Visibility: 2 mi

Pressure: 29.80 "Hg

Humidity: 74%

Dew Point: 72 °F

Location of VientianeLocation

Historic Weather in Vientiane — Graph

°F

Vientiane Temperature Yesterday

Maximum temperature yesterday: 97 °F (at 2:00 PM)
Minimum temperature yesterday: 79 °F (at 10:30 PM)
Average temperature yesterday: 88 °F

High & Low Weather Summary for the Past Weeks

 TemperatureHumidityPressure
High104 °F (Apr 26, 2:30 PM)100% (Apr 22, 6:00 AM)29.95 "Hg (Apr 22, 6:00 AM)
Low73 °F (Apr 30, 6:00 AM)40% (Apr 26, 2:30 PM)29.53 "Hg (Apr 23, 5:30 PM)
Average90 °F64%29.74 "Hg
* Reported Apr 18 10:00 PM — May 3 10:00 PM, Vientiane, Weather by CustomWeather, © 2016

Note: Actual official high and low records may vary slightly from our data, if they occured in-between our weather recording intervals... More about our weather records

Advertising

Vientiane Weather History for the Previous 24 Hours

Scroll right to see more
 ConditionsComfort  
Time TempWeatherWind HumidityBarometerVisibility
10:00 PM
Tue, May 3
81 °FFog.5 mph74%29.80 "Hg2 mi
9:30 PM82 °FFog.5 mph66%29.77 "Hg2 mi
9:00 PM82 °FFog.7 mph66%29.77 "Hg2 mi
8:30 PM82 °FFog.2 mph62%29.74 "Hg2 mi
8:00 PM82 °FFog.2 mph62%29.74 "Hg2 mi
7:30 PM84 °FFog.7 mph58%29.74 "Hg3 mi
6:00 PM84 °FFog.7 mph58%29.71 "Hg3 mi
5:30 PM84 °FBroken clouds.14 mph58%29.68 "Hg4 mi
5:00 PM86 °FBroken clouds.12 mph59%29.68 "Hg4 mi
4:30 PM97 °FScattered clouds.5 mph53%29.65 "Hg5 mi
4:00 PM97 °FScattered clouds.5 mph53%29.65 "Hg5 mi
3:30 PM97 °FScattered clouds.5 mph53%29.68 "Hg5 mi
3:00 PM97 °FScattered clouds.5 mph53%29.68 "Hg5 mi
2:30 PM95 °FBroken clouds.2 mph53%29.71 "Hg4 mi
2:00 PM95 °FBroken clouds.2 mph53%29.71 "Hg4 mi
1:30 PM97 °FScattered clouds.5 mph53%29.74 "Hg5 mi
1:00 PM97 °FScattered clouds.5 mph53%29.74 "Hg5 mi
12:00 PM93 °FPassing clouds.5 mph59%29.80 "Hg5 mi
11:30 AM91 °FPassing clouds.5 mph59%29.80 "Hg4 mi
10:30 AM88 °FClear.5 mph70%29.83 "Hg4 mi
10:00 AM88 °FClear.5 mph70%29.83 "Hg4 mi
9:30 AM84 °FScattered clouds.2 mph74%29.83 "Hg4 mi
8:30 AM81 °FScattered clouds.2 mph79%29.80 "Hg4 mi
8:00 AM81 °FScattered clouds.2 mph79%29.80 "Hg4 mi
7:30 AM79 °FFog.2 mph79%29.77 "Hg3 mi
7:00 AM77 °FFog.2 mph83%29.77 "Hg3 mi
6:30 AM77 °FFog.2 mph83%29.77 "Hg3 mi
6:00 AM77 °FFog.2 mph83%29.77 "Hg2 mi
11:00 PM
Mon, May 2
79 °FFog.2 mph89%29.77 "Hg2 mi
Weather by CustomWeather, © 2016

See weather overviewHow to use our weather pages